Regional Weather Roundup
Issued by NWS

Home | Current Version | Previous Version | Text Only | Print | Product List | Glossary On
Versions: 1 2 3 4 5 6 7 8 9 10 11 12 13 14 15 16 17 18 19 20 21 22 23 24 25 26 27 28 29 30 31 32 33 34 35 36 37 38 39 40 41 42 43 44 45 46 47 48 49 50
000
ASUS43 KLOT 211210
RWRIL

ILLINOIS REGIONAL WEATHER ROUNDUP
NATIONAL WEATHER SERVICE CHICAGO/ROMEOVILLE IL
600 AM CST SUN DEC 21 2014

NOTE: "FAIR" INDICATES FEW OR NO CLOUDS BELOW 12,000 FEET WITH NO
SIGNIFICANT WEATHER AND/OR OBSTRUCTIONS TO VISIBILITY.

* THESE STATIONS ARE NOT UNDER NWS QUALITY CONTROL. THEY ALSO MAY NOT
  REPORT WEATHER SUCH AS PRECIPITATION OR FOG.

ILZ001-002-007-009-015-016-024-211300-
NORTHWEST ILLINOIS

CITY           SKY/WX    TMP DP  RH WIND       PRES   REMARKS
MOLINE         CLOUDY    35  32  88 S8        30.13S WCI  29
6HR MIN TEMP:  34; 6HR MAX TEMP:  35;

STERLING*      CLOUDY    34  28  80 S3        30.16S
SAVANNA*       CLOUDY    34  32  93 S5        30.14S FOG     WCI  30
$$

ILZ003-004-008-010-011-017-018-211300-
NORTH CENTRAL ILLINOIS

CITY           SKY/WX    TMP DP  RH WIND       PRES   REMARKS
ROCKFORD       CLOUDY    32  29  88 S8        30.18F WCI  25
6HR MIN TEMP:  31; 6HR MAX TEMP:  32; 6HR PCP: TRACE;

FREEPORT*      CLOUDY    32  31  94 S10       30.16S FOG     WCI  24
ROCHELLE*      CLOUDY    32  30  93 S12       30.17S FOG     WCI  23
DE KALB*       CLOUDY    30  28  94 SE9       30.19R FOG     WCI  21
PERU*          CLOUDY    34  31  88 S10       30.19S WCI  26
$$

ILZ005-006-012>014-019>023-211300-
NORTHEAST ILLINOIS

CITY           SKY/WX    TMP DP  RH WIND       PRES   REMARKS
CHICAGO-OHARE  CLOUDY    32  27  81 S8        30.20F WCI  25
6HR MIN TEMP:  31; 6HR MAX TEMP:  32; 6HR PCP: TRACE;

CHICAGO-MIDWAY CLOUDY    34  27  75 S10       30.22S WCI  26
6HR MIN TEMP:  34; 6HR MAX TEMP:  34;

AURORA         CLOUDY    33  28  81 SE9       30.20S HAZE    WCI  25
6HR MIN TEMP:  32; 6HR MAX TEMP:  33;

LANSING*       CLOUDY    32  27  82 S7        30.23F WCI  26
JOLIET*        CLOUDY    32  28  84 SE7       30.22S WCI  26
WAUKEGAN       CLOUDY    32  26  78 S7        30.19S WCI  26
6HR MIN TEMP:  31; 6HR MAX TEMP:  32;

DUPAGE AIRPORT CLOUDY    32  28  85 S9        30.19S WCI  24
6HR MIN TEMP:  32; 6HR MAX TEMP:  32;

KANKAKEE*      CLOUDY    32  28  86 S5        30.24S WCI  27
WHEELING       CLOUDY    33  27  78 S9        30.22F WCI  25
6HR MIN TEMP:  32; 6HR MAX TEMP:  33;

MORRIS*        CLOUDY    32  31  95 SE7       30.20F WCI  26
ROMEOVILLE*    CLOUDY    32  28  87 S10       30.21F WCI  23
NORTHERLY ISL    N/A     33  26  76 S5          N/A  WCI  29
$$

LMZ740>746-211300-
SOUTHERN LAKE MICHIGAN

STATION/POSITION SKY/WX   TEMP    WIND        PRES    VSBY  WAVE
                          AIR SEA DIR/SP/G                  HT/PER
                          (F)     (DEG/KT/KT) (MB)    (MI)  (FT/S)
WAUKEGAN HARBOR            33     180/ 11/ 14   N/A
HARRISON CRIB              33     180/ 13/ 15   N/A
BURNHAM HARBOR             33     190/  7       N/A
CALUMET HARBOR             33     180/  8/ 11 1022.3R
$$

ILZ025>027-034>036-040-047-049-050-058-095>099-211300-
WEST-CENTRAL ILLINOIS

CITY           SKY/WX    TMP DP  RH WIND       PRES   REMARKS
QUINCY         CLOUDY    37  34  89 SE6       30.15S WCI  32
GALESBURG*     CLOUDY    34  33  95 SE6       30.15S FOG     WCI  29
MACOMB*        CLOUDY    36  35  94 S8        30.18S FOG     WCI  30
JACKSONVILLE*  CLOUDY    40  34  81 SE8       30.19S
PITTSFIELD*    CLOUDY    38  35  89 S6        30.19R WCI  34
$$

ILZ028>032-037-038-041>044-048-051>054-059>061-211300-
CENTRAL ILLINOIS

CITY           SKY/WX    TMP DP  RH WIND       PRES   REMARKS
PONTIAC        CLOUDY    33  31  92 S9        30.22S WCI  25
BLOOMINGTON    CLOUDY    32  30  92 S8        30.22R WCI  25
DECATUR        CLOUDY    33  29  85 S8        30.23S WCI  26
PEORIA         CLOUDY    36  30  79 SE7       30.19S WCI  30
6HR MIN TEMP:  36; 6HR MAX TEMP:  36;

LACON*         CLOUDY    33  29  85 S6        30.18S WCI  28
LINCOLN*       CLOUDY    35  32  90 S6        30.22S WCI  30
SPRINGFIELD    CLOUDY    37  31  78 S10       30.21R WCI  30
6HR MIN TEMP:  37; 6HR MAX TEMP:  37;

TAYLORVILLE    CLOUDY    34  32  93 S10       30.22S WCI  26
$$

ILZ033-039-045-046-055>057-062-063-211300-
EAST-CENTRAL ILLINOIS

CITY           SKY/WX    TMP DP  RH WIND       PRES   REMARKS
CHAMPAIGN      CLOUDY    32  27  81 SE6       30.24S WCI  26
DANVILLE*      CLOUDY    29  26  90 SE7       30.23S WCI  22
RANTOUL*       CLOUDY    32  30  92 SE6       30.25R FOG     WCI  27
MATTOON        CLOUDY    31  26  82 S8        30.24S WCI  23
PARIS*         CLOUDY    29  28  93 SE6       30.28R FOG     WCI  23
$$

ILZ079-100>102-211300-
SOUTHWEST ILLINOIS

CITY           SKY/WX    TMP DP  RH WIND       PRES   REMARKS
BELLEVILLE     CLOUDY    37  32  84 SE10      30.23R WCI  29
CAHOKIA*       CLOUDY    39  33  79 SE7       30.23R WCI  34
SPARTA*        CLOUDY    34  30  86 CALM      30.26R
$$

ILZ064>066-069>071-074>076-080>082-084>086-088>090-092>094-211300-
SOUTH-CENTRAL ILLINOIS

CITY           SKY/WX    TMP DP  RH WIND       PRES   REMARKS
CARBONDALE     CLOUDY    29  26  89 CALM      30.26R
6HR MIN TEMP:  27; 6HR MAX TEMP:  32;

CAIRO*         CLEAR     29  29 100 CALM      30.26R FOG
EFFINGHAM*     CLOUDY    32  26  78 SE6       30.28R WCI  26
MARION         CLOUDY    28  27  93 CALM      30.27R
MT. VERNON     CLOUDY    30  23  74 NE3       30.26S
CENTRALIA*     CLOUDY    33  28  79 SE6       30.25S WCI  28
SALEM*         CLOUDY    35  28  77 SE6       30.26R WCI  30
METROPOLIS*    CLEAR     24  24 100 CALM      30.25S FOG
$$

ILZ067-068-072-073-078-083-087-091-211300-
SOUTHEAST ILLINOIS

CITY           SKY/WX    TMP DP  RH WIND       PRES   REMARKS
LAWRENCEVILLE  CLEAR     23  21  92 E6        30.29S FOG     WCI  16
FLORA*         CLEAR     31  27  86 SE5       30.28R WCI  26
FAIRFIELD*     CLEAR     26  25  93 CALM      30.26S FOG
HARRISBURG*    CLEAR     25  25  99 CALM      30.28S FOG
ROBINSON*      CLEAR     24  24  99 CALM      30.29S FOG
CARMI*         CLEAR     24  24 100 CALM      30.27S FOG
$$

ABBREVIATIONS USED IN REMARKS
   TC - TEMPERATURE IN CELSIUS
  WCI - WIND CHILL INDEX
   HX - HEAT INDEX
  VSB - VISIBILITY
$$



USA.gov is the U.S. government's official web portal to all federal, state and local government web resources and services.